| time (UTC) | temp C | wind direction | speed KPH | gust KPH | rain 1hr cm | rain 24hr cm | rain mn cm | humidity % | barometer mb |
| 20260504081558 | 12 | 226 | 4.8 | 9.7 | 0.00 | 0.00 | 0.00 | 83 | 1007.5 |
| 20260504044534 | 13 | 224 | 6.4 | 14.5 | 0.00 | 0.00 | 0.00 | 73 | 1009.2 |
| 20260504043036 | 13 | 235 | 6.4 | 8.0 | 0.00 | 0.00 | 0.00 | 73 | 1009.7 |
| 20260504041529 | 13 | 236 | 8.0 | 14.5 | 0.00 | 0.00 | 0.00 | 72 | 1009.4 |
| 20260504040028 | 14 | 233 | 9.7 | 14.5 | 0.00 | 0.00 | 0.00 | 70 | 1009.4 |
| 20260504034528 | 14 | 216 | 6.4 | 9.7 | 0.00 | 0.00 | 0.00 | 69 | 1009.4 |
| 20260504033026 | 15 | 205 | 6.4 | 19.3 | 0.00 | 0.00 | 0.00 | 68 | 1009.4 |
| 20260504031526 | 15 | 205 | 9.7 | 19.3 | 0.00 | 0.00 | 0.00 | 68 | 1009.7 |
| 20260504030026 | 15 | 203 | 12.9 | 24.1 | 0.00 | 0.00 | 0.00 | 67 | 1009.8 |
| 20260504024532 | 16 | 217 | 9.7 | 20.9 | 0.00 | 0.00 | 0.00 | 65 | 1009.3 |
| 20260504023025 | 16 | 224 | 17.7 | 33.8 | 0.00 | 0.00 | 0.00 | 64 | 1009.8 |
| 20260504021525 | 16 | 213 | 16.1 | 24.1 | 0.00 | 0.00 | 0.00 | 64 | 1009.5 |
| 20260504020022 | 16 | 191 | 17.7 | 24.1 | 0.00 | 0.00 | 0.00 | 65 | 1009.6 |
| 20260504014522 | 16 | 187 | 16.1 | 25.7 | 0.00 | 0.00 | 0.00 | 63 | 1009.7 |
| 20260504013032 | 16 | 207 | 19.3 | 32.2 | 0.00 | 0.00 | 0.00 | 63 | 1009.3 |
| 20260504011521 | 16 | 215 | 16.1 | 29.0 | 0.00 | 0.00 | 0.00 | 60 | 1009.0 |
| 20260504010020 | 17 | 213 | 16.1 | 35.4 | 0.00 | 0.00 | 0.00 | 61 | 1009.1 |
| 20260504004524 | 17 | 203 | 19.3 | 32.2 | 0.00 | 0.00 | 0.00 | 60 | 1009.1 |
| 20260504003034 | 17 | 235 | 8.0 | 20.9 | 0.00 | 0.00 | 0.00 | 60 | 1009.0 |
| 20260504001518 | 17 | 188 | 8.0 | 16.1 | 0.00 | 0.00 | 0.00 | 59 | 1009.2 |
| 20260504000018 | 17 | 190 | 9.7 | 17.7 | 0.00 | 0.00 | 0.00 | 59 | 1009.2 |
| 20260503234517 | 18 | 210 | 19.3 | 29.0 | 0.00 | 0.00 | 0.00 | 55 | 1009.1 |
| 20260503233015 | 18 | 227 | 22.5 | 35.4 | 0.00 | 0.00 | 0.00 | 54 | 1008.9 |
| 20260503231512 | 18 | 233 | 22.5 | 32.2 | 0.00 | 0.00 | 0.00 | 53 | 1009.6 |
| 20260503230010 | 19 | 222 | 25.7 | 35.4 | 0.00 | 0.00 | 0.00 | 51 | 1010.3 |
| 20260503224511 | 20 | 223 | 20.9 | 33.8 | 0.00 | 0.00 | 0.00 | 50 | 1010.5 |
| 20260503223006 | 19 | 194 | 17.7 | 35.4 | 0.00 | 0.00 | 0.00 | 54 | 1010.4 |
| 20260503221506 | 18 | 223 | 19.3 | 37.0 | 0.00 | 0.00 | 0.00 | 52 | 1010.6 |
| 20260503220007 | 18 | 191 | 19.3 | 37.0 | 0.00 | 0.00 | 0.00 | 53 | 1010.7 |
| 20260503214501 | 18 | 211 | 25.7 | 40.2 | 0.00 | 0.00 | 0.00 | 53 | 1010.9 |
| 20260503213059 | 19 | 155 | 24.1 | 37.0 | 0.00 | 0.00 | 0.00 | 53 | 1011.0 |
| 20260503211558 | 18 | 205 | 19.3 | 35.4 | 0.00 | 0.00 | 0.00 | 58 | 1011.2 |
| 20260503210054 | 18 | 195 | 25.7 | 40.2 | 0.00 | 0.00 | 0.00 | 54 | 1011.0 |
| 20260503204556 | 17 | 214 | 22.5 | 45.1 | 0.00 | 0.00 | 0.00 | 56 | 1011.1 |
| 20260503203051 | 17 | 212 | 24.1 | 40.2 | 0.00 | 0.00 | 0.00 | 57 | 1010.8 |
| 20260503201547 | 17 | 228 | 24.1 | 45.1 | 0.00 | 0.00 | 0.00 | 56 | 1011.4 |
| 20260503200044 | 16 | 211 | 12.9 | 33.8 | 0.00 | 0.00 | 0.00 | 61 | 1012.3 |
| 20260503194544 | 16 | 219 | 22.5 | 37.0 | 0.00 | 0.00 | 0.00 | 60 | 1012.7 |
| 20260503193041 | 16 | 219 | 16.1 | 32.2 | 0.00 | 0.00 | 0.00 | 59 | 1013.0 |
| 20260503191538 | 16 | 196 | 17.7 | 29.0 | 0.00 | 0.00 | 0.00 | 58 | 1013.4 |
| 20260503190034 | 15 | 221 | 20.9 | 29.0 | 0.00 | 0.00 | 0.00 | 59 | 1014.4 |
| 20260503184548 | 15 | 212 | 17.7 | 37.0 | 0.00 | 0.00 | 0.00 | 59 | 1014.2 |
| 20260503183033 | 16 | 214 | 25.7 | 41.8 | 0.00 | 0.00 | 0.00 | 55 | 1014.3 |
| 20260503181532 | 16 | 193 | 24.1 | 38.6 | 0.00 | 0.00 | 0.00 | 56 | 1014.3 |
| 20260503180035 | 16 | 205 | 20.9 | 40.2 | 0.00 | 0.00 | 0.00 | 56 | 1015.0 |
| 20260503174531 | 16 | 212 | 27.4 | 43.5 | 0.00 | 0.00 | 0.00 | 55 | 1015.3 |
| 20260503173033 | 17 | 221 | 20.9 | 38.6 | 0.00 | 0.00 | 0.00 | 56 | 1015.7 |
| 20260503171521 | 17 | 232 | 24.1 | 33.8 | 0.00 | 0.00 | 0.00 | 56 | 1015.9 |